This demonstration page uses our WeatherBlox Daily Observations layout. Learn more.

Left ArrowRight Arrow

Hourly Observations for July 6, 2016

Temp ( °F °C ) Dew Point ( °F °C ) Humidity (%) Winds ( mph kmh ) Pressure ( in mb ) Visibility ( mi km ) Precip ( " mm )
12:53 am 00:53 Clear 71 21.7 66 18.9 84 84 W 5 7 29.76 1008 10 16 0.00 0.03
1:53 am 01:53 Clear 70 21.1 66 18.9 87 87 W 8 13 29.75 1007 10 16 0.00 0.00
2:53 am 02:53 Clear 71 21.7 64 17.8 79 79 NW 5 7 29.74 1007 10 16 0.00 0.00
3:53 am 03:53 Clear 70 21.1 64 17.8 82 82 Calm 29.72 1007 10 16 0.00 0.00
4:53 am 04:53 Clear 67 19.4 64 17.8 91 91 N 7 11 29.75 1008 10 16 0.00 0.00
5:53 am 05:53 Clear 66 18.9 64 17.8 93 93 WNW 3 6 29.75 1008 8 13 0.00 0.00
6:53 am 06:53 Sunny 66 18.9 64 17.8 93 93 WSW 3 6 29.78 1009 8 13 0.00 0.00
7:53 am 07:53 Sunny 67 19.4 64 17.8 91 91 ENE 3 6 29.78 1009 10 16 0.00 0.00
8:53 am 08:53 Sunny 74 23.3 66 18.9 76 76 E 5 7 29.78 1008 10 16 0.00 0.00
9:53 am 09:53 Sunny 78 25.6 67 19.4 69 69 E 7 11 29.79 1009 10 16 0.00 0.00
10:53 am 10:53 Sunny 81 27.2 69 20.6 67 67 NE 7 11 29.78 1009 10 16 0.00 0.00
11:53 am 11:53 Sunny 83 28.3 70 21.1 65 65 ENE 7 11 29.79 1009 10 16 0.00 0.00
12:04 pm 12:04 Mostly Sunny 82 28 70 21 66 66 ENE 9 15 29.74 1007 10 16 0.00 0.00
12:53 pm 12:53 Sunny 86 30 71 21.7 61 61 S 9 15 29.78 1008 10 16 0.00 0.00
1:53 pm 13:53 Sunny 88 31.1 69 20.6 54 54 VRB 5 7 29.76 1008 10 16 0.00 0.00
2:53 pm 14:53 Sunny 90 32.2 69 20.6 50 50 VRB 3 6 29.74 1007 10 16 0.00 0.00
3:53 pm 15:53 Sunny 92 33.3 63 17.2 38 38 VRB 3 6 29.73 1007 10 16 0.00 0.00
4:53 pm 16:53 Sunny 94 34.4 64 17.8 37 37 S 9 15 29.72 1007 10 16 0.00 0.00
5:53 pm 17:53 Sunny 93 33.9 64 17.8 38 38 S 9 15 29.72 1006 10 16 0.00 0.00
6:53 pm 18:53 Sunny 91 32.8 65 18.3 42 42 SSE 8 13 29.70 1006 10 16 0.00 0.00
7:53 pm 19:53 Sunny 89 31.7 67 19.4 48 48 SE 8 13 29.69 1005 10 16 0.00 0.00
8:53 pm 20:53 Sunny 84 28.9 67 19.4 57 57 SE 8 13 29.66 1004 10 16 0.00 0.00
9:53 pm 21:53 Clear 82 27.8 67 19.4 60 60 SE 9 15 29.69 1005 10 16 0.00 0.00
10:53 pm 22:53 Clear 81 27.2 68 20 65 65 SSE 8 13 29.70 1006 10 16 0.00 0.00
11:53 pm 23:53 Mostly Clear 77 25 69 20.6 77 77 N 23 37 29.74 1007 10 16 0.00 0.00

Powered by AerisWeather